TimeCDT,TemperatureF,Dew PointF,Humidity,Sea Level PressureIn,VisibilityMPH,Wind Direction,Wind SpeedMPH,Gust SpeedMPH,PrecipitationIn,Events,Conditions,WindDirDegrees,DateUTC
12:15 AM,62.6,62.6,100,30.00,10.0,Calm,Calm,-,N/A,,Scattered Clouds,0,2013-07-26 05:15:00
12:35 AM,62.6,62.6,100,30.00,10.0,West,4.6,-,N/A,,Partly Cloudy,270,2013-07-26 05:35:00
12:55 AM,62.6,62.6,100,30.00,10.0,Calm,Calm,-,N/A,,Partly Cloudy,0,2013-07-26 05:55:00
1:15 AM,62.6,62.6,100,29.99,8.0,WSW,4.6,-,N/A,,Partly Cloudy,240,2013-07-26 06:15:00
1:35 AM,60.8,60.8,100,29.98,6.0,West,4.6,-,N/A,,Clear,270,2013-07-26 06:35:00
1:55 AM,62.6,62.6,100,29.98,4.0,WNW,3.5,-,N/A,,Scattered Clouds,300,2013-07-26 06:55:00
2:15 AM,60.8,60.8,100,29.98,4.0,NW,3.5,-,N/A,,Mostly Cloudy,310,2013-07-26 07:15:00
2:35 AM,60.8,60.8,100,29.98,2.5,Calm,Calm,-,N/A,,Overcast,0,2013-07-26 07:35:00
2:55 AM,62.6,62.6,100,29.98,2.0,Calm,Calm,-,N/A,,Overcast,0,2013-07-26 07:55:00
3:15 AM,62.6,62.6,100,29.99,1.2,NNW,4.6,-,N/A,,Overcast,340,2013-07-26 08:15:00
3:35 AM,60.8,60.8,100,29.99,0.2,Calm,Calm,-,N/A,Fog,Fog,0,2013-07-26 08:35:00
3:55 AM,60.8,60.8,100,29.99,5.0,NNW,4.6,-,N/A,,Scattered Clouds,330,2013-07-26 08:55:00
4:15 AM,60.8,60.8,100,30.00,7.0,NNW,4.6,-,N/A,,Clear,330,2013-07-26 09:15:00
4:35 AM,59.0,59.0,100,30.00,7.0,NNW,4.6,-,N/A,,Clear,330,2013-07-26 09:35:00
4:55 AM,59.0,59.0,100,30.01,10.0,NNW,4.6,-,N/A,,Clear,340,2013-07-26 09:55:00
5:15 AM,59.0,59.0,100,30.01,10.0,NW,5.8,-,N/A,,Clear,320,2013-07-26 10:15:00
5:35 AM,59.0,59.0,100,30.02,10.0,NNW,8.1,-,N/A,,Partly Cloudy,330,2013-07-26 10:35:00
5:55 AM,59.0,59.0,100,30.02,10.0,NNW,9.2,-,N/A,,Partly Cloudy,330,2013-07-26 10:55:00
6:15 AM,57.2,57.2,100,30.03,10.0,NNW,8.1,-,N/A,,Clear,330,2013-07-26 11:15:00
6:35 AM,57.2,57.2,100,30.03,10.0,NNW,8.1,-,N/A,,Clear,340,2013-07-26 11:35:00
6:55 AM,57.2,55.4,94,30.04,10.0,NNW,9.2,-,N/A,,Clear,330,2013-07-26 11:55:00
7:15 AM,57.2,55.4,94,30.05,10.0,NNW,9.2,-,N/A,,Clear,330,2013-07-26 12:15:00
7:35 AM,59.0,57.2,94,30.06,10.0,NW,6.9,-,N/A,,Clear,320,2013-07-26 12:35:00
7:55 AM,60.8,55.4,82,30.07,10.0,NW,8.1,-,N/A,,Clear,320,2013-07-26 12:55:00
8:15 AM,60.8,57.2,88,30.08,10.0,Variable,6.9,12.7,N/A,,Clear,0,2013-07-26 13:15:00
8:35 AM,62.6,55.4,77,30.08,10.0,NNW,9.2,16.1,N/A,,Clear,330,2013-07-26 13:35:00
8:55 AM,62.6,55.4,77,30.09,10.0,NNW,12.7,-,N/A,,Clear,330,2013-07-26 13:55:00
9:15 AM,64.4,55.4,73,30.08,10.0,NW,11.5,17.3,N/A,,Partly Cloudy,320,2013-07-26 14:15:00
9:35 AM,62.6,55.4,77,30.09,10.0,NNW,9.2,17.3,N/A,,Mostly Cloudy,330,2013-07-26 14:35:00
9:55 AM,64.4,55.4,73,30.10,10.0,NNW,17.3,24.2,N/A,,Mostly Cloudy,340,2013-07-26 14:55:00
10:15 AM,64.4,53.6,68,30.10,10.0,NNW,18.4,-,N/A,,Mostly Cloudy,330,2013-07-26 15:15:00
10:35 AM,64.4,53.6,68,30.11,10.0,NW,15.0,23.0,N/A,,Mostly Cloudy,320,2013-07-26 15:35:00
10:55 AM,64.4,51.8,64,30.11,10.0,NNW,18.4,24.2,N/A,,Mostly Cloudy,330,2013-07-26 15:55:00
11:15 AM,64.4,51.8,64,30.12,10.0,NNW,17.3,26.5,N/A,,Mostly Cloudy,330,2013-07-26 16:15:00
11:35 AM,64.4,51.8,64,30.13,10.0,NNW,17.3,-,N/A,,Overcast,330,2013-07-26 16:35:00
11:55 AM,64.4,51.8,64,30.13,10.0,NNW,12.7,23.0,N/A,,Overcast,330,2013-07-26 16:55:00
12:15 PM,64.4,51.8,64,30.12,10.0,NNW,15.0,26.5,N/A,,Overcast,340,2013-07-26 17:15:00
12:35 PM,64.4,51.8,64,30.13,10.0,NNW,11.5,19.6,N/A,,Overcast,340,2013-07-26 17:35:00
12:55 PM,64.4,51.8,64,30.12,10.0,NW,13.8,25.3,N/A,,Overcast,320,2013-07-26 17:55:00
1:15 PM,64.4,51.8,64,30.13,10.0,NNW,17.3,25.3,N/A,,Overcast,330,2013-07-26 18:15:00
1:35 PM,66.2,53.6,64,30.12,10.0,NW,13.8,20.7,N/A,,Overcast,320,2013-07-26 18:35:00
1:55 PM,68.0,51.8,56,30.12,10.0,North,17.3,24.2,N/A,,Overcast,350,2013-07-26 18:55:00
2:15 PM,68.0,53.6,60,30.12,10.0,NNW,13.8,24.2,N/A,,Overcast,330,2013-07-26 19:15:00
2:35 PM,68.0,51.8,56,30.11,10.0,North,15.0,23.0,N/A,,Overcast,350,2013-07-26 19:35:00
2:55 PM,68.0,51.8,56,30.12,10.0,NNW,15.0,24.2,N/A,,Overcast,330,2013-07-26 19:55:00
3:15 PM,69.8,51.8,53,30.11,10.0,North,15.0,20.7,N/A,,Overcast,350,2013-07-26 20:15:00
3:35 PM,69.8,50.0,49,30.11,10.0,NNW,15.0,27.6,N/A,,Overcast,340,2013-07-26 20:35:00
3:55 PM,68.0,50.0,52,30.12,10.0,NNW,16.1,25.3,N/A,,Overcast,340,2013-07-26 20:55:00
4:15 PM,69.8,50.0,49,30.11,10.0,North,16.1,25.3,N/A,,Overcast,360,2013-07-26 21:15:00
4:35 PM,68.0,50.0,52,30.11,10.0,North,17.3,25.3,N/A,,Mostly Cloudy,350,2013-07-26 21:35:00
4:55 PM,68.0,50.0,52,30.10,10.0,North,15.0,24.2,N/A,,Partly Cloudy,350,2013-07-26 21:55:00
5:15 PM,71.6,50.0,46,30.10,10.0,NNW,13.8,24.2,N/A,,Scattered Clouds,340,2013-07-26 22:15:00
5:35 PM,69.8,50.0,49,30.11,10.0,North,16.1,23.0,N/A,,Mostly Cloudy,350,2013-07-26 22:35:00
5:55 PM,69.8,50.0,49,30.10,10.0,North,16.1,23.0,N/A,,Mostly Cloudy,10,2013-07-26 22:55:00
6:15 PM,68.0,48.2,49,30.10,10.0,North,13.8,-,N/A,,Mostly Cloudy,350,2013-07-26 23:15:00
6:35 PM,69.8,50.0,49,30.10,10.0,North,15.0,21.9,N/A,,Mostly Cloudy,360,2013-07-26 23:35:00
6:55 PM,68.0,48.2,49,30.10,10.0,North,13.8,20.7,N/A,,Mostly Cloudy,360,2013-07-26 23:55:00
7:15 PM,68.0,48.2,49,30.10,10.0,North,13.8,20.7,N/A,,Mostly Cloudy,10,2013-07-27 00:15:00
7:35 PM,66.2,48.2,52,30.10,10.0,North,11.5,-,N/A,,Scattered Clouds,350,2013-07-27 00:35:00
7:55 PM,66.2,48.2,52,30.11,-9999.0,North,8.1,-,N/A,,Scattered Clouds,350,2013-07-27 00:55:00
8:15 PM,66.2,48.2,52,30.10,10.0,North,8.1,-,N/A,,Mostly Cloudy,350,2013-07-27 01:15:00
8:35 PM,62.6,50.0,63,30.11,10.0,North,6.9,-,N/A,,Partly Cloudy,10,2013-07-27 01:35:00
8:55 PM,60.8,50.0,68,30.11,10.0,North,5.8,-,N/A,,Clear,360,2013-07-27 01:55:00
9:15 PM,57.2,50.0,77,30.12,10.0,North,4.6,-,N/A,,Clear,350,2013-07-27 02:15:00
9:35 PM,57.2,51.8,82,30.12,10.0,NNW,5.8,-,N/A,,Clear,340,2013-07-27 02:35:00
9:55 PM,55.4,51.8,88,30.12,10.0,North,5.8,-,N/A,,Clear,360,2013-07-27 02:55:00
10:15 PM,55.4,50.0,82,30.13,10.0,North,5.8,-,N/A,,Clear,360,2013-07-27 03:15:00
10:35 PM,53.6,50.0,88,30.12,10.0,North,6.9,-,N/A,,Clear,10,2013-07-27 03:35:00
10:55 PM,55.4,50.0,82,30.12,10.0,North,6.9,-,N/A,,Clear,350,2013-07-27 03:55:00
11:15 PM,53.6,50.0,88,30.12,10.0,NNW,5.8,-,N/A,,Clear,340,2013-07-27 04:15:00
11:35 PM,51.8,50.0,94,30.12,10.0,NNW,5.8,-,N/A,,Clear,340,2013-07-27 04:35:00
11:55 PM,51.8,50.0,94,30.12,10.0,NNW,6.9,-,N/A,,Clear,340,2013-07-27 04:55:00